Time[GMT],gps_lat[degrees_north](-3m),gps_lon[degrees_west](-3m),gps_2_lat[degrees_north](-3m),gps_2_lon[degrees_west](-3m)
2013-05-24 13:00,17.860067368,-66.523651123,17.97,-66.62
2013-05-24 14:00,17.860082626,-66.523696899,17.97,-66.62
2013-05-24 15:00,17.860116959,-66.523696899,17.97,-66.62
2013-05-24 16:00,,,,
2013-05-24 17:00,17.860134125,-66.523696899,17.97,-66.62
2013-05-24 18:00,17.860134125,-66.523735046,17.97,-66.62
2013-05-24 19:00,17.860134125,-66.523750305,17.86,-66.52
2013-05-24 20:00,17.860166550,-66.523765564,17.86,-66.52
2013-05-24 21:00,17.860149384,-66.523780823,17.86,-66.52
2013-05-24 22:00,17.860149384,-66.523818970,17.86,-66.52
2013-05-24 23:00,17.860134125,-66.523780823,17.86,-66.52
2013-05-25 00:00,17.860116959,-66.523803711,17.86,-66.52
2013-05-25 01:00,17.860116959,-66.523780823,17.86,-66.52
2013-05-25 02:00,17.860116959,-66.523803711,17.86,-66.52
2013-05-25 03:00,17.860082626,-66.523780823,17.86,-66.52
2013-05-25 04:00,17.860099792,-66.523780823,17.86,-66.52
2013-05-25 05:00,17.860099792,-66.523780823,17.86,-66.52
2013-05-25 06:00,17.860099792,-66.523780823,17.86,-66.52
2013-05-25 07:00,17.860116959,-66.523803711,17.86,-66.52
2013-05-25 08:00,17.860082626,-66.523780823,17.86,-66.52
2013-05-25 09:00,17.860116959,-66.523780823,17.86,-66.52
2013-05-25 10:00,17.860082626,-66.523780823,17.86,-66.52
2013-05-25 11:00,17.860050201,-66.523803711,17.86,-66.52
2013-05-25 12:00,17.860116959,-66.523780823,17.86,-66.52
2013-05-25 13:00,17.860099792,-66.523780823,17.86,-66.52
2013-05-25 14:00,17.860099792,-66.523780823,17.86,-66.52
2013-05-25 15:00,17.860116959,-66.523780823,17.86,-66.52
2013-05-25 16:00,17.860116959,-66.523780823,17.86,-66.52
2013-05-25 17:00,17.860134125,-66.523780823,17.86,-66.52
2013-05-25 18:00,17.860149384,-66.523780823,17.86,-66.52
2013-05-25 19:00,17.860183716,-66.523780823,17.86,-66.52
2013-05-25 20:00,17.860200882,-66.523803711,17.86,-66.52
2013-05-25 21:00,17.860149384,-66.523803711,17.86,-66.52
2013-05-25 22:00,17.860116959,-66.523803711,,
2013-05-25 23:00,17.860134125,-66.523803711,17.86,-66.52
2013-05-26 00:00,17.860116959,-66.523803711,17.86,-66.52
2013-05-26 01:00,,,,
2013-05-26 02:00,17.860116959,-66.523803711,17.86,-66.52
2013-05-26 03:00,17.860082626,-66.523780823,17.86,-66.52
2013-05-26 04:00,17.860082626,-66.523803711,17.86,-66.52
2013-05-26 05:00,17.860082626,-66.523818970,17.86,-66.52
2013-05-26 06:00,17.860082626,-66.523803711,17.86,-66.52
2013-05-26 07:00,17.860099792,-66.523818970,17.86,-66.52
2013-05-26 08:00,17.860099792,-66.523818970,17.86,-66.52
2013-05-26 09:00,17.860116959,-66.523803711,17.86,-66.52
2013-05-26 10:00,17.860099792,-66.523780823,17.86,-66.52
2013-05-26 11:00,17.860082626,-66.523803711,17.86,-66.52
2013-05-26 12:00,17.860099792,-66.523780823,17.86,-66.52
2013-05-26 13:00,17.860099792,-66.523803711,17.86,-66.52
2013-05-26 14:00,17.860099792,-66.523818970,17.86,-66.52
2013-05-26 15:00,17.860116959,-66.523803711,17.86,-66.52
2013-05-26 16:00,17.860134125,-66.523803711,17.86,-66.52
2013-05-26 17:00,17.860166550,-66.523803711,17.86,-66.52
2013-05-26 18:00,17.860149384,-66.523780823,17.86,-66.52
2013-05-26 19:00,17.860149384,-66.523780823,17.86,-66.52
2013-05-26 20:00,17.860116959,-66.523803711,17.86,-66.52
2013-05-26 21:00,17.860116959,-66.523818970,17.86,-66.52
2013-05-26 22:00,17.860116959,-66.523834229,17.86,-66.52
2013-05-26 23:00,17.860116959,-66.523834229,17.86,-66.52
2013-05-27 00:00,17.860099792,-66.523834229,,
2013-05-27 01:00,17.860116959,-66.523834229,17.86,-66.52
2013-05-27 02:00,17.860116959,-66.523834229,17.86,-66.52
2013-05-27 03:00,17.860082626,-66.523818970,17.86,-66.52
2013-05-27 04:00,17.860067368,-66.523803711,17.86,-66.52
2013-05-27 05:00,17.860067368,-66.523803711,17.86,-66.52
2013-05-27 06:00,17.860067368,-66.523780823,17.86,-66.52
2013-05-27 07:00,17.860082626,-66.523834229,17.86,-66.52
2013-05-27 08:00,17.860099792,-66.523818970,17.86,-66.52
2013-05-27 09:00,17.860082626,-66.523803711,17.86,-66.52
2013-05-27 10:00,17.860082626,-66.523818970,17.86,-66.52
2013-05-27 11:00,17.860099792,-66.523818970,17.86,-66.52
2013-05-27 12:00,17.860099792,-66.523834229,,
2013-05-27 13:00,17.860082626,-66.523834229,17.86,-66.52
2013-05-27 14:00,17.860116959,-66.523818970,17.86,-66.52
2013-05-27 15:00,17.860116959,-66.523818970,17.86,-66.52
2013-05-27 16:00,17.860149384,-66.523818970,17.86,-66.52
2013-05-27 17:00,17.860149384,-66.523803711,17.86,-66.52
2013-05-27 18:00,17.860166550,-66.523803711,17.86,-66.52
2013-05-27 19:00,17.860183716,-66.523818970,17.86,-66.52
2013-05-27 20:00,17.860149384,-66.523834229,17.86,-66.52
2013-05-27 21:00,17.860099792,-66.523849487,17.86,-66.52
2013-05-27 22:00,17.860134125,-66.523864746,17.86,-66.52
2013-05-27 23:00,17.860116959,-66.523880005,17.86,-66.52
2013-05-28 00:00,17.860116959,-66.523864746,17.86,-66.52
2013-05-28 01:00,17.860099792,-66.523880005,17.86,-66.52
2013-05-28 02:00,17.860116959,-66.523864746,17.86,-66.52
2013-05-28 03:00,17.860116959,-66.523864746,17.86,-66.52
2013-05-28 04:00,17.860033035,-66.523818970,17.86,-66.52
2013-05-28 05:00,17.860050201,-66.523818970,17.86,-66.52
2013-05-28 06:00,17.860082626,-66.523849487,17.86,-66.52
2013-05-28 07:00,17.860099792,-66.523849487,17.86,-66.52
2013-05-28 08:00,17.860082626,-66.523849487,17.86,-66.52
2013-05-28 09:00,17.860082626,-66.523864746,17.86,-66.52
2013-05-28 10:00,17.860082626,-66.523849487,17.86,-66.52
2013-05-28 11:00,17.860099792,-66.523849487,17.86,-66.52
2013-05-28 12:00,17.860099792,-66.523849487,17.86,-66.52
2013-05-28 13:00,17.860099792,-66.523864746,17.86,-66.52
2013-05-28 14:00,17.860116959,-66.523864746,17.86,-66.52
2013-05-28 15:00,17.860134125,-66.523864746,17.86,-66.52
2013-05-28 16:00,17.860134125,-66.523849487,17.86,-66.52
2013-05-28 17:00,17.860149384,-66.523849487,17.86,-66.52
2013-05-28 18:00,17.860166550,-66.523834229,17.86,-66.52
2013-05-28 19:00,17.860166550,-66.523834229,17.86,-66.52
2013-05-28 20:00,17.860149384,-66.523849487,17.86,-66.52
2013-05-28 21:00,17.860134125,-66.523864746,17.86,-66.52
2013-05-28 22:00,17.860116959,-66.523864746,17.86,-66.52
2013-05-28 23:00,17.860099792,-66.523864746,17.86,-66.52
2013-05-29 00:00,17.860116959,-66.523864746,17.86,-66.52
2013-05-29 01:00,17.860116959,-66.523849487,17.86,-66.52
2013-05-29 02:00,17.860134125,-66.523880005,17.86,-66.52
2013-05-29 03:00,17.860116959,-66.523849487,17.86,-66.52
2013-05-29 04:00,17.860099792,-66.523834229,17.86,-66.52
2013-05-29 05:00,17.860050201,-66.523849487,17.86,-66.52
2013-05-29 06:00,17.860033035,-66.523818970,17.86,-66.52
2013-05-29 07:00,17.860067368,-66.523849487,17.86,-66.52
2013-05-29 08:00,17.860116959,-66.523849487,17.86,-66.52
2013-05-29 09:00,17.860099792,-66.523834229,17.86,-66.52
2013-05-29 10:00,17.860099792,-66.523849487,17.86,-66.52
2013-05-29 11:00,17.860082626,-66.523849487,17.86,-66.52
2013-05-29 12:00,17.860082626,-66.523864746,17.86,-66.52
2013-05-29 13:00,17.860099792,-66.523880005,17.86,-66.52
2013-05-29 14:00,17.860099792,-66.523880005,17.86,-66.52
2013-05-29 15:00,17.860149384,-66.523864746,17.86,-66.52
2013-05-29 16:00,17.860116959,-66.523864746,17.86,-66.52
2013-05-29 17:00,17.860134125,-66.523864746,17.86,-66.52
2013-05-29 18:00,17.860134125,-66.523834229,17.86,-66.52
2013-05-29 19:00,17.860134125,-66.523834229,17.86,-66.52
2013-05-29 20:00,17.860149384,-66.523834229,17.86,-66.52
2013-05-29 21:00,17.860149384,-66.523834229,17.86,-66.52
2013-05-29 22:00,17.860134125,-66.523849487,17.86,-66.52
2013-05-29 23:00,17.860134125,-66.523864746,17.86,-66.52
2013-05-30 00:00,17.860099792,-66.523864746,,
2013-05-30 01:00,17.860116959,-66.523880005,17.86,-66.52
2013-05-30 02:00,17.860134125,-66.523864746,17.86,-66.52
2013-05-30 03:00,17.860116959,-66.523864746,17.86,-66.52
2013-05-30 04:00,17.860099792,-66.523864746,17.86,-66.52
2013-05-30 05:00,17.860099792,-66.523834229,17.86,-66.52
2013-05-30 06:00,17.860067368,-66.523834229,17.86,-66.52
2013-05-30 07:00,17.860050201,-66.523719788,17.86,-66.52
2013-05-30 08:00,17.860050201,-66.523780823,17.86,-66.52
2013-05-30 09:00,17.860116959,-66.523818970,17.86,-66.52
2013-05-30 10:00,17.860134125,-66.523849487,17.86,-66.52
2013-05-30 11:00,17.860116959,-66.523849487,17.86,-66.52
2013-05-30 12:00,17.860116959,-66.523849487,17.86,-66.52
2013-05-30 13:00,17.860116959,-66.523864746,17.86,-66.52
2013-05-30 14:00,17.860116959,-66.523880005,17.86,-66.52
2013-05-30 15:00,17.860134125,-66.523849487,17.86,-66.52
2013-05-30 16:00,17.860134125,-66.523880005,17.86,-66.52
2013-05-30 17:00,17.860134125,-66.523864746,17.86,-66.52
2013-05-30 18:00,17.860116959,-66.523849487,17.86,-66.52
2013-05-30 19:00,17.860134125,-66.523864746,17.86,-66.52
2013-05-30 20:00,17.860134125,-66.523849487,17.86,-66.52
2013-05-30 21:00,17.860149384,-66.523849487,17.86,-66.52
2013-05-30 22:00,17.860149384,-66.523849487,17.86,-66.52
2013-05-30 23:00,17.860134125,-66.523864746,17.86,-66.52
2013-05-31 00:00,17.860116959,-66.523864746,,
2013-05-31 01:00,17.860116959,-66.523880005,17.86,-66.52
2013-05-31 02:00,17.860116959,-66.523849487,17.86,-66.52
2013-05-31 03:00,17.860116959,-66.523849487,17.86,-66.52
2013-05-31 04:00,17.860099792,-66.523864746,17.86,-66.52
2013-05-31 05:00,17.860099792,-66.523849487,17.86,-66.52
2013-05-31 06:00,17.860067368,-66.523849487,17.86,-66.52
2013-05-31 07:00,17.860082626,-66.523849487,17.86,-66.52
2013-05-31 08:00,17.860067368,-66.523834229,17.86,-66.52
2013-05-31 09:00,17.860116959,-66.523818970,17.86,-66.52
2013-05-31 10:00,17.860134125,-66.523849487,17.86,-66.52
2013-05-31 11:00,17.860134125,-66.523834229,17.86,-66.52
2013-05-31 12:00,17.860134125,-66.523849487,17.86,-66.52
2013-05-31 13:00,17.860134125,-66.523849487,17.86,-66.52
2013-05-31 14:00,17.860099792,-66.523864746,17.86,-66.52
2013-05-31 15:00,17.860099792,-66.523880005,17.86,-66.52
2013-05-31 16:00,17.860134125,-66.523864746,17.86,-66.52
2013-05-31 17:00,17.860134125,-66.523849487,17.86,-66.52
2013-05-31 18:00,17.860134125,-66.523849487,17.86,-66.52
2013-05-31 19:00,17.860149384,-66.523864746,17.86,-66.52
2013-05-31 20:00,17.860134125,-66.523849487,17.86,-66.52
2013-05-31 21:00,17.860134125,-66.523849487,17.86,-66.52
2013-05-31 22:00,17.860116959,-66.523880005,17.86,-66.52
2013-05-31 23:00,17.860099792,-66.523864746,17.86,-66.52
2013-06-01 00:00,17.860082626,-66.523849487,17.86,-66.52
2013-06-01 01:00,17.860116959,-66.523880005,17.86,-66.52
2013-06-01 02:00,17.860099792,-66.523864746,17.86,-66.52
2013-06-01 03:00,17.860099792,-66.523864746,17.86,-66.52
2013-06-01 04:00,17.860099792,-66.523880005,17.86,-66.52
2013-06-01 05:00,17.860082626,-66.523864746,17.86,-66.52
2013-06-01 06:00,17.860082626,-66.523834229,17.86,-66.52
2013-06-01 07:00,17.860082626,-66.523849487,17.86,-66.52
2013-06-01 08:00,17.860082626,-66.523834229,17.86,-66.52
2013-06-01 09:00,17.860067368,-66.523803711,17.86,-66.52
2013-06-01 10:00,17.860134125,-66.523803711,17.86,-66.52
2013-06-01 11:00,17.860082626,-66.523780823,17.86,-66.52
2013-06-01 12:00,17.860082626,-66.523818970,17.86,-66.52
2013-06-01 13:00,17.860099792,-66.523849487,17.86,-66.52
2013-06-01 14:00,17.860134125,-66.523864746,17.86,-66.52
2013-06-01 15:00,17.860116959,-66.523864746,17.86,-66.52
2013-06-01 16:00,17.860116959,-66.523880005,17.86,-66.52
2013-06-01 17:00,17.860149384,-66.523849487,17.86,-66.52
2013-06-01 18:00,17.860149384,-66.523849487,17.86,-66.52
2013-06-01 19:00,17.860166550,-66.523849487,17.86,-66.52
2013-06-01 20:00,17.860149384,-66.523849487,17.86,-66.52
2013-06-01 21:00,17.860149384,-66.523849487,17.86,-66.52
2013-06-01 22:00,17.860134125,-66.523849487,17.86,-66.52
2013-06-01 23:00,17.860116959,-66.523834229,17.86,-66.52
2013-06-02 00:00,17.860134125,-66.523849487,17.86,-66.52
2013-06-02 01:00,17.860116959,-66.523880005,17.86,-66.52
2013-06-02 02:00,17.860134125,-66.523849487,17.86,-66.52
2013-06-02 03:00,17.860134125,-66.523880005,17.86,-66.52
2013-06-02 04:00,17.860099792,-66.523864746,17.86,-66.52
2013-06-02 05:00,17.860116959,-66.523864746,17.86,-66.52
2013-06-02 06:00,17.860099792,-66.523834229,17.86,-66.52
2013-06-02 07:00,17.860116959,-66.523864746,17.86,-66.52
2013-06-02 08:00,17.860116959,-66.523834229,17.86,-66.52
2013-06-02 09:00,17.860116959,-66.523818970,17.86,-66.52
2013-06-02 10:00,17.860082626,-66.523818970,17.86,-66.52
2013-06-02 11:00,17.860082626,-66.523834229,17.86,-66.52
2013-06-02 12:00,17.860067368,-66.523803711,17.86,-66.52
2013-06-02 13:00,17.860082626,-66.523818970,17.86,-66.52
2013-06-02 14:00,17.860099792,-66.523864746,17.86,-66.52
2013-06-02 15:00,17.860134125,-66.523864746,17.86,-66.52
2013-06-02 16:00,17.860134125,-66.523880005,17.86,-66.52
2013-06-02 17:00,17.860166550,-66.523880005,17.86,-66.52
2013-06-02 18:00,17.860166550,-66.523849487,17.86,-66.52
2013-06-02 19:00,17.860149384,-66.523880005,17.86,-66.52
2013-06-02 20:00,17.860149384,-66.523849487,17.86,-66.52
2013-06-02 21:00,17.860134125,-66.523849487,17.86,-66.52
2013-06-02 22:00,17.860116959,-66.523849487,17.86,-66.52
2013-06-02 23:00,17.860134125,-66.523849487,17.86,-66.52
2013-06-03 00:00,17.860116959,-66.523849487,17.86,-66.52
2013-06-03 01:00,,,,
2013-06-03 02:00,17.860099792,-66.523849487,17.86,-66.52
2013-06-03 03:00,17.860116959,-66.523849487,17.86,-66.52
2013-06-03 04:00,17.860099792,-66.523849487,17.86,-66.52
2013-06-03 05:00,17.860099792,-66.523849487,17.86,-66.52
2013-06-03 06:00,17.860099792,-66.523834229,17.86,-66.52
2013-06-03 07:00,17.860116959,-66.523849487,17.86,-66.52
2013-06-03 08:00,17.860099792,-66.523834229,17.86,-66.52
2013-06-03 09:00,17.860082626,-66.523834229,17.86,-66.52
2013-06-03 10:00,17.860050201,-66.523765564,17.86,-66.52
2013-06-03 11:00,17.860067368,-66.523780823,17.86,-66.52
2013-06-03 12:00,17.860050201,-66.523803711,17.86,-66.52
2013-06-03 13:00,17.860082626,-66.523818970,17.86,-66.52
2013-06-03 14:00,17.860099792,-66.523849487,17.86,-66.52
2013-06-03 15:00,17.860134125,-66.523864746,17.86,-66.52
2013-06-03 16:00,17.860134125,-66.523864746,17.86,-66.52
2013-06-03 17:00,17.860116959,-66.523849487,17.86,-66.52
2013-06-03 18:00,17.860116959,-66.523834229,17.86,-66.52
2013-06-03 19:00,17.860134125,-66.523849487,17.86,-66.52
2013-06-03 20:00,17.860134125,-66.523849487,17.86,-66.52
2013-06-03 21:00,17.860134125,-66.523849487,17.86,-66.52
2013-06-03 22:00,17.860134125,-66.523849487,17.86,-66.52
2013-06-03 23:00,17.860116959,-66.523834229,17.86,-66.52
2013-06-04 00:00,17.860116959,-66.523864746,17.86,-66.52
2013-06-04 01:00,17.860067368,-66.523849487,17.86,-66.52
2013-06-04 02:00,17.860099792,-66.523880005,17.86,-66.52
2013-06-04 03:00,17.860082626,-66.523880005,17.86,-66.52
2013-06-04 04:00,17.860099792,-66.523880005,17.86,-66.52
2013-06-04 05:00,17.860099792,-66.523849487,17.86,-66.52
2013-06-04 06:00,17.860116959,-66.523880005,17.86,-66.52
2013-06-04 07:00,17.860116959,-66.523864746,17.86,-66.52
2013-06-04 08:00,17.860149384,-66.523849487,17.86,-66.52
2013-06-04 09:00,17.860099792,-66.523849487,17.86,-66.52
2013-06-04 10:00,17.860099792,-66.523834229,17.86,-66.52
2013-06-04 11:00,17.860067368,-66.523834229,17.86,-66.52
2013-06-04 12:00,17.860067368,-66.523818970,17.86,-66.52
2013-06-04 13:00,17.860067368,-66.523834229,17.86,-66.52
2013-06-04 14:00,17.860099792,-66.523864746,17.86,-66.52
2013-06-04 15:00,17.860134125,-66.523880005,17.86,-66.52
2013-06-04 16:00,17.860134125,-66.523864746,17.86,-66.52
2013-06-04 17:00,17.860166550,-66.523849487,17.86,-66.52
2013-06-04 18:00,17.860134125,-66.523834229,17.86,-66.52
2013-06-04 19:00,17.860166550,-66.523849487,17.86,-66.52
2013-06-04 20:00,17.860166550,-66.523834229,17.86,-66.52
2013-06-04 21:00,17.860149384,-66.523849487,17.86,-66.52
2013-06-04 22:00,17.860134125,-66.523849487,17.86,-66.52
2013-06-04 23:00,17.860134125,-66.523849487,17.86,-66.52
2013-06-05 00:00,17.860099792,-66.523834229,17.86,-66.52
2013-06-05 01:00,17.860082626,-66.523864746,17.86,-66.52
2013-06-05 02:00,17.860134125,-66.523849487,17.86,-66.52
2013-06-05 03:00,17.860134125,-66.523864746,17.86,-66.52
2013-06-05 04:00,17.860134125,-66.523849487,17.86,-66.52
2013-06-05 05:00,17.860116959,-66.523849487,17.86,-66.52
2013-06-05 06:00,17.860099792,-66.523834229,17.86,-66.52
2013-06-05 07:00,17.860099792,-66.523834229,17.86,-66.52
2013-06-05 08:00,17.860099792,-66.523864746,17.86,-66.52
2013-06-05 09:00,17.860099792,-66.523834229,17.86,-66.52
2013-06-05 10:00,17.860099792,-66.523834229,17.86,-66.52
2013-06-05 11:00,17.860099792,-66.523834229,17.86,-66.52
2013-06-05 12:00,17.860099792,-66.523818970,17.86,-66.52
2013-06-05 13:00,17.860099792,-66.523818970,17.86,-66.52
2013-06-05 14:00,17.860134125,-66.523849487,17.86,-66.52
2013-06-05 15:00,17.860149384,-66.523849487,17.86,-66.52
2013-06-05 16:00,17.860166550,-66.523849487,17.86,-66.52
2013-06-05 17:00,17.860183716,-66.523849487,17.86,-66.52
2013-06-05 18:00,17.860166550,-66.523849487,17.86,-66.52
2013-06-05 19:00,17.860166550,-66.523849487,17.86,-66.52
2013-06-05 20:00,17.860149384,-66.523834229,17.86,-66.52
2013-06-05 21:00,17.860149384,-66.523834229,17.86,-66.52
2013-06-05 22:00,17.860134125,-66.523834229,17.86,-66.52
2013-06-05 23:00,17.860116959,-66.523834229,17.86,-66.52
2013-06-06 00:00,,,,
2013-06-06 01:00,17.860082626,-66.523834229,,
2013-06-06 02:00,17.860082626,-66.523849487,,
2013-06-06 03:00,17.860116959,-66.523849487,,
2013-06-06 04:00,17.860116959,-66.523864746,,
2013-06-06 05:00,17.860116959,-66.523849487,,
2013-06-06 06:00,17.860116959,-66.523834229,,
2013-06-06 07:00,17.860134125,-66.523864746,,
2013-06-06 08:00,17.860116959,-66.523849487,,
2013-06-06 09:00,17.860082626,-66.523834229,,
2013-06-06 10:00,,,,
2013-06-06 11:00,17.860067368,-66.523818970,,
2013-06-06 12:00,17.860082626,-66.523818970,17.86,-66.52
2013-06-06 13:00,17.860099792,-66.523834229,17.86,-66.52
2013-06-06 14:00,17.860116959,-66.523834229,17.86,-66.52
2013-06-06 15:00,17.860149384,-66.523849487,17.86,-66.52
2013-06-06 16:00,17.860166550,-66.523849487,,
2013-06-06 17:00,17.860166550,-66.523849487,17.86,-66.52
2013-06-06 18:00,17.860183716,-66.523818970,17.86,-66.52
2013-06-06 19:00,17.860183716,-66.523849487,17.86,-66.52
2013-06-06 20:00,17.860149384,-66.523849487,17.86,-66.52
2013-06-06 21:00,17.860166550,-66.523849487,17.86,-66.52
2013-06-06 22:00,17.860149384,-66.523834229,17.86,-66.52
2013-06-06 23:00,17.860134125,-66.523849487,17.86,-66.52
2013-06-07 00:00,17.860134125,-66.523803711,17.86,-66.52
2013-06-07 01:00,17.860116959,-66.523818970,17.86,-66.52
2013-06-07 02:00,17.860082626,-66.523818970,17.86,-66.52
2013-06-07 03:00,17.860116959,-66.523818970,,
2013-06-07 04:00,17.860099792,-66.523834229,,
2013-06-07 05:00,17.860099792,-66.523803711,,
2013-06-07 06:00,17.860134125,-66.523818970,,
2013-06-07 07:00,17.860116959,-66.523864746,,
2013-06-07 08:00,17.860099792,-66.523849487,,
2013-06-07 09:00,17.860082626,-66.523818970,,
2013-06-07 10:00,17.860082626,-66.523780823,,
2013-06-07 11:00,17.860067368,-66.523803711,,
2013-06-07 12:00,17.860099792,-66.523818970,,
2013-06-07 13:00,17.860099792,-66.523849487,,
2013-06-07 14:00,,,,
2013-06-07 15:00,17.860116959,-66.523849487,,
2013-06-07 16:00,17.860116959,-66.523834229,,
2013-06-07 17:00,17.860134125,-66.523834229,,
2013-06-07 18:00,17.860166550,-66.523849487,,
2013-06-07 19:00,17.860183716,-66.523849487,17.86,-66.52
2013-06-07 20:00,17.860166550,-66.523864746,17.86,-66.52
2013-06-07 21:00,17.860149384,-66.523864746,17.86,-66.52
2013-06-07 22:00,17.860134125,-66.523849487,,
2013-06-07 23:00,17.860134125,-66.523849487,17.86,-66.52
2013-06-08 00:00,17.860116959,-66.523864746,,
2013-06-08 01:00,17.860099792,-66.523849487,17.86,-66.52
2013-06-08 02:00,17.860082626,-66.523834229,17.86,-66.52
2013-06-08 03:00,17.860082626,-66.523834229,17.86,-66.52
2013-06-08 04:00,17.860082626,-66.523834229,17.86,-66.52
2013-06-08 05:00,17.860082626,-66.523849487,17.86,-66.52
2013-06-08 06:00,17.860099792,-66.523864746,17.86,-66.52
2013-06-08 07:00,17.860116959,-66.523849487,17.86,-66.52
2013-06-08 08:00,17.860099792,-66.523834229,17.86,-66.52
2013-06-08 09:00,17.860099792,-66.523834229,17.86,-66.52
2013-06-08 10:00,17.860082626,-66.523818970,17.86,-66.52
2013-06-08 11:00,17.860082626,-66.523834229,17.86,-66.52
2013-06-08 12:00,17.860099792,-66.523834229,17.86,-66.52
2013-06-08 13:00,17.860082626,-66.523849487,17.86,-66.52
2013-06-08 14:00,17.860134125,-66.523834229,17.86,-66.52
2013-06-08 15:00,17.860149384,-66.523834229,17.86,-66.52
2013-06-08 16:00,17.860166550,-66.523818970,17.86,-66.52
2013-06-08 17:00,17.860166550,-66.523849487,17.86,-66.52
2013-06-08 18:00,17.860183716,-66.523818970,17.86,-66.52
2013-06-08 19:00,17.860200882,-66.523834229,17.86,-66.52
2013-06-08 20:00,17.860166550,-66.523818970,17.86,-66.52
2013-06-08 21:00,17.860166550,-66.523834229,17.86,-66.52
2013-06-08 22:00,17.860166550,-66.523834229,17.86,-66.52
2013-06-08 23:00,17.860149384,-66.523834229,17.86,-66.52
2013-06-09 00:00,17.860134125,-66.523818970,17.86,-66.52
2013-06-09 01:00,17.860134125,-66.523834229,17.86,-66.52
2013-06-09 02:00,17.860116959,-66.523834229,17.86,-66.52
2013-06-09 03:00,17.860116959,-66.523834229,17.86,-66.52
2013-06-09 04:00,17.860116959,-66.523834229,17.86,-66.52
2013-06-09 05:00,17.860134125,-66.523818970,17.86,-66.52
2013-06-09 06:00,17.860134125,-66.523849487,17.86,-66.52
2013-06-09 07:00,17.860149384,-66.523834229,17.86,-66.52
2013-06-09 08:00,17.860134125,-66.523849487,17.86,-66.52
2013-06-09 09:00,17.860149384,-66.523834229,17.86,-66.52
2013-06-09 10:00,17.860149384,-66.523834229,17.86,-66.52
2013-06-09 11:00,17.860134125,-66.523849487,17.86,-66.52
2013-06-09 12:00,17.860134125,-66.523818970,17.86,-66.52
2013-06-09 13:00,17.860116959,-66.523849487,17.86,-66.52
2013-06-09 14:00,17.860134125,-66.523849487,17.86,-66.52
2013-06-09 15:00,17.860134125,-66.523864746,17.86,-66.52
2013-06-09 16:00,17.860116959,-66.523849487,17.86,-66.52
2013-06-09 17:00,17.860134125,-66.523849487,17.86,-66.52
2013-06-09 18:00,17.860149384,-66.523834229,17.86,-66.52
2013-06-09 19:00,17.860149384,-66.523849487,17.86,-66.52
2013-06-09 20:00,17.860134125,-66.523864746,17.86,-66.52
2013-06-09 21:00,17.860149384,-66.523849487,17.86,-66.52
2013-06-09 22:00,17.860116959,-66.523834229,17.86,-66.52
2013-06-09 23:00,17.860116959,-66.523834229,17.86,-66.52
2013-06-10 00:00,17.860134125,-66.523849487,17.86,-66.52
2013-06-10 01:00,17.860134125,-66.523864746,17.86,-66.52
2013-06-10 02:00,17.860116959,-66.523849487,17.86,-66.52
2013-06-10 03:00,17.860099792,-66.523849487,17.86,-66.52
2013-06-10 04:00,17.860099792,-66.523849487,17.86,-66.52
2013-06-10 05:00,17.860116959,-66.523834229,17.86,-66.52
2013-06-10 06:00,17.860116959,-66.523849487,17.86,-66.52
2013-06-10 07:00,17.860116959,-66.523849487,17.86,-66.52
2013-06-10 08:00,17.860116959,-66.523849487,17.86,-66.52
2013-06-10 09:00,17.860099792,-66.523849487,17.86,-66.52
2013-06-10 10:00,17.860099792,-66.523849487,17.86,-66.52
2013-06-10 11:00,17.860082626,-66.523849487,17.86,-66.52
2013-06-10 12:00,17.860082626,-66.523864746,17.86,-66.52
2013-06-10 13:00,17.860116959,-66.523864746,,
2013-06-10 14:00,17.860116959,-66.523849487,17.86,-66.52
2013-06-10 15:00,17.860134125,-66.523864746,17.86,-66.52
2013-06-10 16:00,17.860149384,-66.523849487,17.86,-66.52
2013-06-10 17:00,17.860166550,-66.523834229,17.86,-66.52
2013-06-10 18:00,17.860149384,-66.523834229,17.86,-66.52
2013-06-10 19:00,17.860149384,-66.523834229,17.86,-66.52
2013-06-10 20:00,17.860134125,-66.523849487,17.86,-66.52
2013-06-10 21:00,17.860082626,-66.523834229,17.86,-66.52
2013-06-10 22:00,17.860099792,-66.523864746,17.86,-66.52
2013-06-10 23:00,17.860082626,-66.523849487,17.86,-66.52
2013-06-11 00:00,17.860082626,-66.523849487,17.86,-66.52
2013-06-11 01:00,17.860099792,-66.523880005,17.86,-66.52